York, PA

11:46 PM EST on January 23, 2018 (GMT -0500)
York

Weather History for KTHV - April, 2013

Change the Weather History Date:

Wednesday, April 10, 2013

  Actual Average Record
Temperature  
Mean Temperature 74 °F -  
Max Temperature 88 °F 0 °F 88 °F (2013)
Min Temperature 61 °F - 21 °F (2007)
Cooling Degree Days 10    
Growing Degree Days 24 (Base 50)    
Moisture  
Dew Point 52 °F    
Average Humidity 48    
Maximum Humidity 77    
Minimum Humidity 29    
Precipitation  
Precipitation 0.00 in - - ()
Sea Level Pressure  
Sea Level Pressure 29.86 in    
Wind  
Wind Speed 9 mph (WSW)    
Max Wind Speed 20 mph    
Max Gust Speed 26 mph    
Visibility 10 miles    
Events Rain , Thunderstorm    
Averages and records for this station are not official NWS values.
T = Trace of Precipitation, MM = Missing Value Source: NWS Daily Summary

Daily Weather History Graph

Daily Weather History Graph

Search for Another Location

Airport or City:

Trip Planner

Search our weather history database for the weather conditions in past years. The results will help you decide how hot, cold, wet, or windy it might be!

Date:

Astronomy

Apr. 10, 2013 Rise Set
Actual Time 6:36 AM EDT 7:41 PM EDT
Civil Twilight 6:09 AM EDT 8:08 PM EDT
Nautical Twilight 5:36 AM EDT 8:41 PM EDT
Astronomical Twilight 5:01 AM EDT 9:16 PM EDT
Moon 6:31 AM EDT (4/10) 8:14 PM EDT (4/10)
Length of Visible Light 13h 59m
Length of Day
13h 04m
New Moon, 0% of the Moon is Illuminated
Apr 10
New Moon
Apr 18
First Quarter
Apr 25
Full
May 2
Last Quarter
May 9
New

Hourly Weather History & Observations

Time (EDT) Temp. Heat Index Dew Point Humidity Pressure Visibility Wind Dir Wind Speed Gust Speed Precip Events Conditions
12:53 AM 73.0 °F - 48.9 °F 42% 29.88 in 10.0 mi SSW 12.7 mph 20.7 mph N/A   Clear
1:53 AM 73.0 °F - 48.9 °F 42% 29.88 in 10.0 mi SW 10.4 mph - N/A   Clear
2:53 AM 69.1 °F - 48.9 °F 49% 29.88 in 10.0 mi SW 3.5 mph - N/A   Clear
3:53 AM 66.9 °F - 48.9 °F 52% 29.89 in 10.0 mi West 3.5 mph - N/A   Clear
4:53 AM 66.0 °F - 48.0 °F 52% 29.90 in 10.0 mi Calm Calm - N/A   Clear
5:53 AM 61.0 °F - 48.9 °F 64% 29.91 in 10.0 mi West 3.5 mph - N/A   Partly Cloudy
6:53 AM 70.0 °F - 48.9 °F 47% 29.93 in 10.0 mi WSW 8.1 mph - N/A   Clear
7:53 AM 73.0 °F - 50.0 °F 44% 29.93 in 10.0 mi SW 4.6 mph - N/A   Clear
8:53 AM 75.9 °F - 51.1 °F 42% 29.94 in 10.0 mi WSW 9.2 mph - N/A   Clear
9:53 AM 79.0 °F - 52.0 °F 39% 29.93 in 10.0 mi West 10.4 mph - N/A   Clear
10:53 AM 81.0 °F 80.5 °F 54.0 °F 39% 29.91 in 10.0 mi WSW 15.0 mph 24.2 mph N/A   Partly Cloudy
11:53 AM 82.0 °F 81.3 °F 54.0 °F 38% 29.92 in 10.0 mi WSW 12.7 mph 20.7 mph N/A   Partly Cloudy
1:53 PM 84.9 °F 83.3 °F 54.0 °F 34% 29.87 in 10.0 mi WSW 12.7 mph 20.7 mph N/A   Partly Cloudy
3:53 PM 88.0 °F - 52.0 °F 29% 29.82 in 10.0 mi West 15.0 mph 23.0 mph N/A   Clear
4:53 PM 86.0 °F - 52.0 °F 31% 29.81 in 10.0 mi WSW 9.2 mph - N/A   Scattered Clouds
5:53 PM 86.0 °F - 51.1 °F 30% 29.78 in 10.0 mi SW 8.1 mph - N/A   Clear
6:53 PM 82.9 °F - 51.1 °F 33% 29.77 in 10.0 mi SW 5.8 mph - N/A   Clear
7:53 PM 82.0 °F - 52.0 °F 35% 29.75 in 10.0 mi SSW 6.9 mph - N/A   Clear
8:53 PM 81.0 °F - 52.0 °F 36% 29.78 in 10.0 mi SW 8.1 mph - N/A   Clear
9:29 PM 80.6 °F - 51.8 °F 37% 29.83 in 10.0 mi Variable 6.9 mph - N/A Thunderstorm Thunderstorm
9:50 PM 71.6 °F - 53.6 °F 53% 29.85 in 10.0 mi North 17.3 mph 26.5 mph 0.00 in Thunderstorm Overcast
9:53 PM 71.1 °F - 54.0 °F 55% 29.85 in 10.0 mi North 19.6 mph 26.5 mph 0.00 in Thunderstorm Overcast
10:15 PM 66.2 °F - 55.4 °F 68% 29.85 in 10.0 mi North 3.5 mph - 0.00 in Rain Light Rain
10:25 PM 66.2 °F - 55.4 °F 68% 29.85 in 10.0 mi ESE 4.6 mph - 0.00 in Thunderstorm Scattered Clouds
10:40 PM 64.4 °F - 57.2 °F 77% 29.85 in 10.0 mi East 3.5 mph - 0.00 in   Partly Cloudy
10:53 PM 64.9 °F - 57.0 °F 75% 29.85 in 10.0 mi East 5.8 mph - 0.00 in   Clear
11:53 PM 64.0 °F - 55.9 °F 75% 29.89 in 10.0 mi Calm Calm - N/A   Clear